• In Österreich
  • Länderverzeichnis
  • Für 7 Tage
  • Wassertemperatur
  • Satellitenkarten
  • Wetterkarte
  • News
  • Widgets
  • user-avatar
    Anmelden

    Stündliche Wetter Parshiha

    Heute, 16 Juli, Montag

    Zeit Temperatur Niederschläge Wind Luftdruck Luftfeuchtigkeit
    00:00 +18°C° 0 mm 2 m/S 742 mmHg 94%
    01:00 +18°C° 0 mm 2 m/S 742 mmHg 94%
    02:00 +17°C° 0 mm 2 m/S 742 mmHg 95%
    03:00 +17°C° 0 mm 2 m/S 742 mmHg 94%
    04:00 +18°C° 0 mm 2 m/S 742 mmHg 94%
    05:00 +18°C° 0 mm 2 m/S 742 mmHg 93%
    06:00 +20°C° 0 mm 2 m/S 743 mmHg 87%
    07:00 +23°C° 0 mm 2 m/S 743 mmHg 81%
    08:00 +24°C° 0 mm 3 m/S 743 mmHg 75%
    09:00 +26°C° 0,2 mm 3 m/S 743 mmHg 69%
    10:00 +27°C° 0,2 mm 4 m/S 743 mmHg 64%
    11:00 +28°C° 0,2 mm 4 m/S 743 mmHg 58%
    12:00 +28°C° 0 mm 4 m/S 742 mmHg 56%
    13:00 +29°C° 0 mm 4 m/S 742 mmHg 54%
    14:00 +29°C° 0 mm 4 m/S 742 mmHg 51%
    15:00 +28°C° 0 mm 4 m/S 742 mmHg 55%
    16:00 +28°C° 0 mm 4 m/S 742 mmHg 58%
    17:00 +28°C° 0 mm 3 m/S 742 mmHg 61%
    18:00 +26°C° 0 mm 3 m/S 742 mmHg 67%
    19:00 +24°C° 0 mm 3 m/S 742 mmHg 73%
    20:00 +21°C° 0 mm 3 m/S 742 mmHg 79%
    21:00 +21°C° 0 mm 3 m/S 742 mmHg 80%
    22:00 +20°C° 0 mm 3 m/S 742 mmHg 82%
    23:00 +20°C° 0 mm 3 m/S 742 mmHg 83%

    Morgen, 17 Juli, Dienstag

    Zeit Temperatur Niederschläge Wind Luftdruck Luftfeuchtigkeit
    00:00 +19°C° 0 mm 3 m/S 741 mmHg 85%
    01:00 +19°C° 0 mm 3 m/S 741 mmHg 86%
    02:00 +19°C° 0 mm 3 m/S 741 mmHg 87%
    03:00 +19°C° 0 mm 3 m/S 741 mmHg 87%
    04:00 +19°C° 0 mm 3 m/S 741 mmHg 86%
    05:00 +20°C° 0 mm 4 m/S 741 mmHg 85%
    06:00 +21°C° 0 mm 4 m/S 741 mmHg 80%
    07:00 +23°C° 0 mm 5 m/S 741 mmHg 75%
    08:00 +25°C° 0 mm 5 m/S 741 mmHg 69%
    09:00 +26°C° 0 mm 5 m/S 741 mmHg 66%
    10:00 +27°C° 0 mm 6 m/S 741 mmHg 63%
    11:00 +28°C° 0 mm 6 m/S 740 mmHg 59%
    12:00 +28°C° 0,2 mm 6 m/S 740 mmHg 60%
    13:00 +28°C° 0,2 mm 6 m/S 740 mmHg 61%
    14:00 +28°C° 0,2 mm 6 m/S 740 mmHg 61%
    15:00 +28°C° 0,1 mm 6 m/S 739 mmHg 64%
    16:00 +28°C° 0,1 mm 6 m/S 739 mmHg 66%
    17:00 +27°C° 0,1 mm 5 m/S 739 mmHg 69%
    18:00 +26°C° 0,1 mm 5 m/S 739 mmHg 73%
    19:00 +25°C° 0,1 mm 4 m/S 739 mmHg 78%
    20:00 +22°C° 0,1 mm 4 m/S 739 mmHg 83%
    21:00 +22°C° 0 mm 4 m/S 739 mmHg 84%
    22:00 +22°C° 0 mm 4 m/S 739 mmHg 85%
    23:00 +21°C° 0 mm 4 m/S 739 mmHg 87%

    übermorgen, 18 Juli, Mittwoch

    Zeit Temperatur Niederschläge Wind Luftdruck Luftfeuchtigkeit
    00:00 +21°C° 0 mm 4 m/S 739 mmHg 87%
    01:00 +20°C° 0 mm 4 m/S 739 mmHg 88%
    02:00 +20°C° 0 mm 4 m/S 739 mmHg 89%
    03:00 +20°C° 0 mm 4 m/S 739 mmHg 90%
    04:00 +20°C° 0 mm 4 m/S 739 mmHg 90%
    05:00 +20°C° 0 mm 4 m/S 739 mmHg 90%
    06:00 +21°C° 0 mm 5 m/S 739 mmHg 85%
    07:00 +22°C° 0 mm 5 m/S 739 mmHg 80%
    08:00 +23°C° 0 mm 5 m/S 739 mmHg 75%
    09:00 +24°C° 0 mm 6 m/S 739 mmHg 70%
    10:00 +26°C° 0 mm 6 m/S 739 mmHg 65%
    11:00 +27°C° 0 mm 6 m/S 739 mmHg 61%
    12:00 +28°C° 0,2 mm 6 m/S 739 mmHg 61%
    13:00 +28°C° 0,2 mm 6 m/S 739 mmHg 62%
    14:00 +28°C° 0,2 mm 6 m/S 739 mmHg 62%
    15:00 +27°C° 0,4 mm 6 m/S 739 mmHg 67%
    16:00 +26°C° 0,4 mm 5 m/S 739 mmHg 73%
    17:00 +25°C° 0,4 mm 5 m/S 739 mmHg 78%
    18:00 +23°C° 0,1 mm 4 m/S 739 mmHg 81%
    19:00 +22°C° 0,1 mm 4 m/S 739 mmHg 84%
    20:00 +20°C° 0,1 mm 4 m/S 739 mmHg 88%
    21:00 +20°C° 0 mm 4 m/S 739 mmHg 89%
    22:00 +19°C° 0 mm 3 m/S 739 mmHg 90%
    23:00 +18°C° 0 mm 3 m/S 739 mmHg 91%

    19 Juli, Donnerstag

    Zeit Temperatur Niederschläge Wind Luftdruck Luftfeuchtigkeit
    00:00 +18°C° 0 mm 3 m/S 739 mmHg 92%
    01:00 +18°C° 0 mm 3 m/S 739 mmHg 92%
    02:00 +18°C° 0 mm 3 m/S 739 mmHg 93%
    03:00 +18°C° 0,2 mm 3 m/S 739 mmHg 94%
    04:00 +18°C° 0,2 mm 3 m/S 739 mmHg 95%
    05:00 +18°C° 0,2 mm 3 m/S 739 mmHg 96%
    06:00 +18°C° 0,3 mm 3 m/S 739 mmHg 96%
    07:00 +19°C° 0,3 mm 3 m/S 739 mmHg 96%
    08:00 +19°C° 0,3 mm 3 m/S 739 mmHg 96%
    09:00 +20°C° 0,1 mm 3 m/S 740 mmHg 93%
    10:00 +21°C° 0,1 mm 3 m/S 740 mmHg 89%
    11:00 +22°C° 0,1 mm 3 m/S 740 mmHg 86%
    12:00 +24°C° 0,3 mm 3 m/S 740 mmHg 82%
    13:00 +25°C° 0,3 mm 3 m/S 740 mmHg 78%
    14:00 +26°C° 0,3 mm 3 m/S 740 mmHg 73%
    15:00 +26°C° 0,7 mm 3 m/S 740 mmHg 77%
    16:00 +26°C° 0,7 mm 3 m/S 740 mmHg 80%
    17:00 +25°C° 0,7 mm 3 m/S 740 mmHg 84%
    18:00 +24°C° 0,2 mm 3 m/S 740 mmHg 87%
    19:00 +23°C° 0,2 mm 2 m/S 740 mmHg 91%
    20:00 +21°C° 0,2 mm 2 m/S 740 mmHg 95%
    21:00 +20°C° 0,1 mm 2 m/S 740 mmHg 95%
    22:00 +20°C° 0,1 mm 2 m/S 740 mmHg 96%
    23:00 +19°C° 0,1 mm 2 m/S 740 mmHg 97%

    20 Juli, Freitag

    Zeit Temperatur Niederschläge Wind Luftdruck Luftfeuchtigkeit
    00:00 +19°C° 0 mm 2 m/S 740 mmHg 97%
    01:00 +18°C° 0 mm 2 m/S 740 mmHg 97%
    02:00 +18°C° 0 mm 2 m/S 740 mmHg 97%
    03:00 +18°C° 0 mm 2 m/S 740 mmHg 96%
    04:00 +19°C° 0 mm 2 m/S 740 mmHg 96%
    05:00 +19°C° 0 mm 2 m/S 740 mmHg 95%
    06:00 +20°C° 0,1 mm 2 m/S 741 mmHg 91%
    07:00 +23°C° 0,1 mm 2 m/S 741 mmHg 86%
    08:00 +24°C° 0,1 mm 2 m/S 741 mmHg 82%
    09:00 +25°C° 0,6 mm 3 m/S 741 mmHg 79%
    10:00 +26°C° 0,6 mm 3 m/S 741 mmHg 77%
    11:00 +27°C° 0,6 mm 3 m/S 741 mmHg 75%
    12:00 +27°C° 0,9 mm 3 m/S 740 mmHg 76%
    13:00 +27°C° 0,9 mm 3 m/S 740 mmHg 77%
    14:00 +27°C° 0,9 mm 3 m/S 740 mmHg 78%
    15:00 +27°C° 0,3 mm 3 m/S 740 mmHg 79%
    16:00 +27°C° 0,3 mm 3 m/S 740 mmHg 79%
    17:00 +26°C° 0,3 mm 3 m/S 740 mmHg 79%
    18:00 +25°C° 0,1 mm 2 m/S 740 mmHg 84%
    19:00 +24°C° 0,1 mm 2 m/S 740 mmHg 88%
    20:00 +23°C° 0,1 mm 2 m/S 740 mmHg 93%
    21:00 +21°C° 0,4 mm 2 m/S 740 mmHg 94%
    22:00 +21°C° 0,4 mm 2 m/S 740 mmHg 95%
    23:00 +20°C° 0,4 mm 2 m/S 740 mmHg 96%

    21 Juli, Samstag

    Zeit Temperatur Niederschläge Wind Luftdruck Luftfeuchtigkeit
    00:00 +20°C° 0,4 mm 2 m/S 740 mmHg 96%
    01:00 +20°C° 0,4 mm 2 m/S 740 mmHg 97%
    02:00 +20°C° 0,4 mm 2 m/S 740 mmHg 97%
    03:00 +20°C° 0,3 mm 2 m/S 740 mmHg 97%
    04:00 +20°C° 0,3 mm 2 m/S 740 mmHg 97%
    05:00 +21°C° 0,3 mm 2 m/S 740 mmHg 97%
    06:00 +23°C° 0,1 mm 2 m/S 740 mmHg 93%
    07:00 +24°C° 0,1 mm 2 m/S 740 mmHg 90%
    08:00 +25°C° 0,1 mm 2 m/S 740 mmHg 86%
    09:00 +27°C° 0,1 mm 2 m/S 740 mmHg 79%
    10:00 +28°C° 0,1 mm 3 m/S 740 mmHg 72%
    11:00 +29°C° 0,1 mm 3 m/S 740 mmHg 64%
    12:00 +30°C° 0,3 mm 3 m/S 740 mmHg 65%
    13:00 +30°C° 0,3 mm 3 m/S 740 mmHg 66%
    14:00 +30°C° 0,3 mm 3 m/S 740 mmHg 67%
    15:00 +29°C° 0,7 mm 2 m/S 740 mmHg 72%
    16:00 +29°C° 0,7 mm 2 m/S 740 mmHg 76%
    17:00 +28°C° 0,7 mm 2 m/S 740 mmHg 80%
    18:00 +27°C° 0,2 mm 2 m/S 740 mmHg 84%
    19:00 +25°C° 0,2 mm 2 m/S 740 mmHg 88%
    20:00 +24°C° 0,2 mm 2 m/S 740 mmHg 92%
    21:00 +23°C° 0,4 mm 2 m/S 740 mmHg 93%
    22:00 +23°C° 0,4 mm 2 m/S 740 mmHg 94%
    23:00 +21°C° 0,4 mm 2 m/S 740 mmHg 96%
    Mehr zeigen